This demonstration page uses our WeatherBlox Daily Observations layout. Learn more.

Left ArrowRight Arrow

36.17497, -115.13722

Hourly Observations for September 28, 2015

Temp ( °F °C ) Dew Point ( °F °C ) Humidity (%) Winds ( mph kmh ) Pressure ( in mb ) Visibility ( mi km ) Precip ( " mm )
12:53 am 00:53 Clear 87 30.6 42 5.6 21 21 SW 10 17 29.77 1008 10 16 N/A
1:53 am 01:53 Clear 85 29.4 40 4.4 20 20 SSE 3 6 29.78 1009 10 16 N/A
2:53 am 02:53 Clear 83 28.3 39 3.9 21 21 N N/A 29.78 1009 10 16 N/A
3:53 am 03:53 Clear 82 27.8 36 2.2 19 19 SSE 5 7 29.78 1009 10 16 N/A
4:53 am 04:53 Clear 79 26.1 43 6.1 28 28 N N/A 29.79 1009 10 16 N/A
5:53 am 05:53 Clear 77 25 42 5.6 29 29 NW 5 7 29.80 1009 10 16 N/A
6:53 am 06:53 Sunny 76 24.4 42 5.6 30 30 N 3 6 29.83 1010 10 16 N/A
7:53 am 07:53 Sunny 79 26.1 42 5.6 27 27 NW 3 6 29.85 1011 10 16 N/A
8:53 am 08:53 Sunny 85 29.4 38 3.3 19 19 SE 5 7 29.85 1011 10 16 N/A
9:53 am 09:53 Sunny 89 31.7 38 3.3 16 16 S 7 11 29.86 1011 10 16 N/A
10:53 am 10:53 Sunny 91 32.8 40 4.4 17 17 SSE 8 13 29.85 1011 10 16 N/A
11:53 am 11:53 Sunny 95 35 39 3.9 14 14 SE 8 13 29.83 1010 10 16 N/A
12:53 pm 12:53 Sunny 97 36.1 39 3.9 13 13 SE 7 11 29.80 1009 10 16 N/A
1:53 pm 13:53 Sunny 98 36.7 39 3.9 13 13 S 6 9 29.78 1009 10 16 N/A
2:53 pm 14:53 Sunny 100 37.8 38 3.3 12 12 SW 14 22 29.76 1008 10 16 N/A
3:53 pm 15:53 Sunny 98 36.7 36 2.2 11 11 SW 8 13 29.76 1008 10 16 N/A
4:53 pm 16:53 Sunny 97 36.1 35 1.7 11 11 WSW 9 15 29.77 1008 10 16 N/A
5:53 pm 17:53 Sunny 96 35.6 35 1.7 12 12 SW 8 13 29.76 1008 10 16 N/A
6:53 pm 18:53 Clear 94 34.4 36 2.2 13 13 S 5 7 29.78 1008 10 16 N/A
7:53 pm 19:53 Clear 89 31.7 36 2.2 15 15 S 8 13 29.79 1009 10 16 N/A
8:53 pm 20:53 Clear 86 30 37 2.8 18 18 NNE 9 15 29.81 1010 10 16 N/A
9:53 pm 21:53 Clear 87 30.6 35 1.7 16 16 N N/A 29.82 1010 10 16 N/A
10:53 pm 22:53 Clear 86 30 36 2.2 17 17 N N/A 29.82 1010 10 16 N/A
11:53 pm 23:53 Clear 84 28.9 35 1.7 17 17 NNE 3 6 29.82 1010 10 16 N/A

Powered by AerisWeather